Location: Carnoy
(49.9849°N, 2.7558°E)
Time: 11:07:11
(UTC+00:00)

USA 32 - Pass Details

Date: 24 January 2020
Orbit: 777 x 783 km, 85.0° (Epoch: 29 January)

Event Time Altitude Azimuth Distance (km) Brightness Sun altitude
Rises 17:52:13 0° 185° (S) 3,247 7.5 -13.2°
Reaches altitude 10° 17:54:33 10° 186° (S) 2,323 6.8 -13.6°
Maximum altitude 17:59:46 86° 275° (W) 787 4.1 -14.4°
Drops below altitude 10° 18:05:02 10° 6° (N) 2,341 6.3 -15.2°
Sets 18:07:24 0° 7° (N) 3,274 7.1 -15.6°
